Location: Unspecified
(42.9300°N, 71.1866°W)
Time: 11:32:23
(UTC-04:00)

Envisat - Visible Passes

Search period start: 26 April 2018 00:00
Search period end: 06 May 2018 00:00
Orbit: 764 x 766 km, 98.2° (Epoch: 26 April)

Date Brightness Start Highest point End Pass type
(mag) Time Alt. Az. Time Alt. Az. Time Alt. Az.
26 Apr 3.5 20:21:02 10° S 20:26:02 62° W 20:31:06 10° NNW visible
27 Apr 5.6 21:25:37 10° SW 21:28:46 16° W 21:31:56 10° NW visible
28 Apr 4.5 20:47:06 10° SSW 20:51:43 35° W 20:56:23 10° NNW visible
29 Apr 3.2 20:09:48 10° S 20:14:53 78° WSW 20:19:59 10° NNW visible
30 Apr 5.4 21:13:45 10° SW 21:17:30 21° W 21:21:17 10° NW visible
01 May 4.1 20:35:41 10° S 20:40:31 44° W 20:45:23 10° NNW visible
02 May 5.8 21:41:41 10° WSW 21:43:23 12° W 21:45:05 10° WNW visible
03 May 5.1 21:02:03 10° SSW 21:06:15 26° W 21:10:29 10° NW visible
04 May 3.7 20:24:22 10° S 20:29:20 56° W 20:34:21 10° NNW visible
05 May 5.6 21:29:15 10° SW 21:32:06 15° W 21:34:57 10° NW visible
